map of KAN home
KAN - Airport
Location
City:  Kano, Kano, Nigeria
Name:Mallam Aminu Kano International Airport
ICAO:DNKN
IATA:KAN

Details
Type:Airport (Aerodrome, Airfield)
Use:Public/Civil, Military, International (customs port of entry)
Latitude:1202'51"N (12.047589)
Longitude:831'29"E (8.524622)
Datum:WGS 1984
Elevation:1562 ft (476 m)
Variation:0.00W (WMM2015 magnetic declination)
0.09 annual change
Runways:2
Longest:10831 × 197 ft (3301 × 60 m), paved

Time
Time Zone:UTC+1
Local Time:

Weather
METAR:DNKN 190300Z 00000KT CAVOK 15/10 Q1015 NOSIG
TAF:DNKN 182130Z 1900/2006 VRB02KT CAVOK
BECMG 1903/1905 07007KT
TEMPO 1906/1911 5000 HZ

Related Locations
Nearby:
Farthest:AAU: 12309 mi / 19810 km
Asau, WS

Find:

   beyond  
but within

Other Information
Maps:
NOTAMs:
Links:
Sources:

  
  • flag of Nigeria
  

Sectional Chart

Flight Planning
at skyvector.com

Satellite Image

Google Maps Satellite view

 

Copyright © 2004-2018 Karl L. Swartz. All rights reserved.
The Great Circle Mapper name and logo are trademarks of the Great Circle Mapper.
All other trademarks mentioned herein belong to their respective owners.
Please see credits for attibutions and further copyright information.

  Follow gcmap on Facebook Follow gcmap on Twitter Follow gcmap on Google+ GCmap on LinkedIn

hCard Microformat

Geo Microformat